Regional Weather Roundup
Issued by NWS Kansas City/Pleasant Hill, MO

Home | Current Version | Previous Version | Graphics & Text | Print | Product List | Glossary Off
Versions: 1 2 3 4 5 6 7 8 9 10 11 12 13 14 15 16 17 18 19 20 21 22 23 24 25 26 27 28 29 30 31 32 33 34 35 36 37 38 39 40 41 42 43 44 45 46 47 48 49 50

000
ASUS43 KEAX 280110
RWREAX

WEATHER ROUNDUP FOR EASTERN KANSAS AND NORTHWEST MISSOURI
NATIONAL WEATHER SERVICE KANSAS CITY/PLEASANT HILL MO
800 PM CDT FRI MAY 27 2016

KSZ040-057-103>105-MOZ028-029-037-043-280200-
...KANSAS CITY METROPOLITAN AREA...

CITY           SKY/WX    TMP DP  RH WIND       PRES   REMARKS
K.C. INTL      CLOUDY    67  63  87 NE7       29.71R
K.C. DOWNTOWN  CLOUDY    72  67  84 E7        29.70R
LEES SUMMIT    CLOUDY    73  65  75 S9        29.72R
OLATHE - IXD   CLOUDY    69  63  81 S6        29.72R
OLATHE - OJC   CLOUDY    70  63  78 SE5       29.71R
LAWRENCE       CLOUDY    70  66  87 E3        29.71R

$$

MOZ001>008-011>017-020>025-030>033-038>040-044>046-053-054-280200-
...NORTHERN AND CENTRAL MISSOURI...

CITY           SKY/WX    TMP DP  RH WIND       PRES   REMARKS
ST. JOSEPH     LGT RAIN  71  65  81 NE3       29.71R
MOSBY          DRIZZLE   70  63  78 CALM      29.71R
WARRENSBURG    CLOUDY    72  68  88 S6        29.72R
WHITEMAN AFB   CLOUDY    73  72  98 S7        29.72R
CLINTON        CLOUDY    70  66  88 S3        29.74R
SEDALIA        CLOUDY    74  68  81 S8        29.74R
WARSAW         NOT AVBL
CHILLICOTHE      N/A     68  66  93 VRB3      29.73R
KIRKSVILLE     LGT RAIN  67  65  93 NE3       29.75S

$$

MOZ041-047>049-056>058-063>065-088>090-097-280200-
...EASTERN AND SOUTHERN MISSOURI...

CITY           SKY/WX    TMP DP  RH WIND       PRES   REMARKS
ST. LOUIS INTL CLOUDY    73  68  84 S8        29.81R
SPIRIT OF STL  CLOUDY    71  67  87 S3        29.79R
COLUMBIA       LGT RAIN  68  66  93 S9        29.74F
JEFFERSON CITY CLOUDY    69  68  96 SE7       29.74S FOG
ROLLA          CLOUDY    68  65  90 S10G21    29.77S
SPRINGFIELD    PTCLDY    72  66  81 SE9       29.74R
BRANSON        CLOUDY    72  64  78 S8G16     29.78R
JOPLIN         CLOUDY    73  67  81 SE5       29.72R
WEST PLAINS    CLOUDY    70  66  87 S12G20    29.82R

$$

IAZ060-094-KSZ022-034>040-054-083-096-NEZ052-066-093-280200-
...KANSAS...SOUTHEAST NEBRASKA AND IOWA...

CITY           SKY/WX    TMP DP  RH WIND       PRES   REMARKS
TOPEKA         CLOUDY    65  57  75 W14G35    29.75R
MANHATTAN      RAIN      62  57  83 SW14      29.73S
EMPORIA        LGT RAIN  59  58  96 NW6       29.73R
CHANUTE        CLOUDY    73  66  78 S8        29.70R
WICHITA        CLOUDY    66  60  81 E16       29.65R
OMAHA          CLOUDY    74  62  66 SE14      29.69R
LINCOLN        LGT RAIN  67  63  87 E9        29.67S
FALLS CITY     LGT RAIN  72  67  84 SE7       29.69S
LAMONI         LGT RAIN  68  66  93 CALM      29.74R
DES MOINES     MOCLDY    74  61  63 NE7       29.70F

$$




USA.gov is the U.S. government's official web portal to all federal, state and local government web resources and services.